Location: ??????????
(44.2167°N, 135.5333°E)
Time: 14:54:54
(UTC+00:00)

Okean 2 - Pass Details

Date: 15 June 2025
Orbit: 522 x 533 km, 82.5° (Epoch: 15 July)

Event Time Altitude Azimuth Distance (km) Brightness Sun altitude
Exits shadow 13:42:48 44° 222° (SW) 738 3.7 -20.3°
Maximum altitude 13:43:47 62° 280° (W) 601 3.5 -20.3°
Drops below altitude 10° 13:47:40 10° 2° (N) 1,784 7.0 -20.5°
Sets 13:49:51 0° 6° (N) 2,676 8.0 -20.6°
